{"data":{"norad_id":41591,"epoch":"2026-05-24T21:05:38.838336Z","epoch_age_seconds":81362,"freshness":"FRESH","line1":"1 41591U 16039A   26144.87892174 -.00000200  00000+0  00000+0 0  9993","line2":"2 41591   0.0157 290.6875 0002061 127.0684 291.6268  1.00271571 36376","mean_motion":1.00271571,"eccentricity":0.0002061,"inclination_deg":0.0157,"raan_deg":290.6875,"arg_perigee_deg":127.0684,"mean_anomaly_deg":291.6268,"bstar":0,"rev_number":3637,"period_min":1436.0999689533,"perigee_km":35777.964789644,"apogee_km":35795.345116887,"semimajor_km":42164.791953266,"source":"CELESTRAK","updated_at":"2026-05-25T13:38:14.004302Z"}}